User: anonymous   Login
Location: Axtheid
(49.6213°N, 11.8205°E)
Time: 06:24:20
(UTC+00:00)
Language:

Landsat 5 - Orbit

View from above orbital plane
View from above orbital plane
View from above satellite
View from above satellite

Ground track
Ground track

The orbit data is extracted from the following two-line orbital elements,

1 14780U 84021A   21108.54998564  .00000481  00000-0  50152-4 0  9997
2 14780  98.2014 283.5581 0088544 242.0809 117.1423 14.92253428509274
Epoch (UTC): 18 April 2021 13:11:58
Eccentricity: 0.0088544
inclination: 98.2014°
perigee height: 529 km
apogee height: 652 km
right ascension of ascending node: 283.5581°
argument of perigee: 242.0809°
revolutions per day: 14.92253428
mean anomaly at epoch: 117.1423°
orbit number at epoch: 50927

The dashed part of the orbit path shows where the satellite is in the earth's shadow,  

DLR